| time (UTC) | temp C | wind direction | speed KPH | gust KPH | rain 1hr cm | rain 24hr cm | rain mn cm | humidity % | barometer mb |
| 20260503200019 | 27 | 100 | 4.8 | 16.1 | 0.00 | 0.00 | 0.00 | 41 | 1008.3 |
| 20260503194517 | 26 | 39 | 4.8 | 12.9 | 0.00 | 0.00 | 0.00 | 42 | 1008.4 |
| 20260503193014 | 25 | 62 | 8.0 | 19.3 | 0.00 | 0.00 | 0.00 | 44 | 1008.6 |
| 20260503191516 | 25 | 74 | 4.8 | 9.7 | 0.00 | 0.00 | 0.00 | 47 | 1008.8 |
| 20260503190008 | 24 | 38 | 4.8 | 14.5 | 0.00 | 0.00 | 0.00 | 47 | 1009.0 |
| 20260503184504 | 23 | 71 | 1.6 | 12.9 | 0.00 | 0.00 | 0.00 | 49 | 1009.1 |
| 20260503183102 | 23 | 36 | 6.4 | 14.5 | 0.00 | 0.00 | 0.00 | 49 | 1009.3 |
| 20260503181612 | 22 | 84 | 0.0 | 16.1 | 0.00 | 0.00 | 0.00 | 55 | 1009.4 |
| 20260503180112 | 21 | 11 | 4.8 | 14.5 | 0.00 | 0.00 | 0.00 | 53 | 1009.5 |
| 20260503174556 | 21 | 31 | 6.4 | 14.5 | 0.00 | 0.00 | 0.00 | 55 | 1009.6 |
| 20260503173058 | 20 | 9 | 4.8 | 12.9 | 0.00 | 0.00 | 0.00 | 59 | 1009.7 |
| 20260503171544 | 20 | 81 | 6.4 | 16.1 | 0.00 | 0.00 | 0.00 | 60 | 1009.8 |
| 20260503081543 | 16 | 140 | 0.0 | 3.2 | 0.00 | 0.03 | 0.00 | 80 | 1010.4 |
| 20260503071541 | 16 | 355 | 1.6 | 8.0 | 0.00 | 0.03 | 0.00 | 78 | 1010.6 |
| 20260503054531 | 16 | 62 | 0.0 | 9.7 | 0.00 | 0.03 | 0.03 | 77 | 1010.5 |
| 20260503053030 | 16 | 46 | 3.2 | 11.3 | 0.00 | 0.03 | 0.03 | 78 | 1010.4 |
| 20260503051535 | 16 | 88 | 3.2 | 16.1 | 0.00 | 0.03 | 0.03 | 77 | 1010.4 |
| 20260503050030 | 16 | 30 | 1.6 | 9.7 | 0.00 | 0.03 | 0.03 | 79 | 1010.8 |
| 20260503044531 | 16 | 84 | 6.4 | 12.9 | 0.00 | 0.03 | 0.03 | 77 | 1011.1 |
| 20260503043028 | 17 | 63 | 4.8 | 11.3 | 0.00 | 0.03 | 0.03 | 71 | 1010.8 |
| 20260503041528 | 17 | 90 | 0.0 | 1.6 | 0.00 | 0.03 | 0.03 | 73 | 1010.7 |
| 20260503040027 | 17 | 91 | 0.0 | 6.4 | 0.00 | 0.03 | 0.03 | 73 | 1010.8 |
| 20260503034529 | 17 | 294 | 0.0 | 4.8 | 0.00 | 0.03 | 0.03 | 73 | 1010.7 |
| 20260503033035 | 17 | 294 | 0.0 | 4.8 | 0.00 | 0.03 | 0.03 | 70 | 1010.6 |
| 20260503031526 | 17 | 281 | 0.0 | 11.3 | 0.00 | 0.03 | 0.03 | 74 | 1010.2 |
| 20260503030044 | 16 | 264 | 8.0 | 17.7 | 0.00 | 0.03 | 0.03 | 76 | 1010.3 |
| 20260503024531 | 16 | 247 | 8.0 | 19.3 | 0.00 | 0.03 | 0.03 | 76 | 1010.4 |
| 20260503023024 | 17 | 233 | 8.0 | 17.7 | 0.00 | 0.03 | 0.03 | 75 | 1010.5 |
| 20260503021527 | 17 | 215 | 11.3 | 32.2 | 0.00 | 0.03 | 0.03 | 73 | 1010.4 |
| 20260503020024 | 18 | 246 | 9.7 | 16.1 | 0.00 | 0.03 | 0.03 | 69 | 1010.2 |
| 20260503014523 | 19 | 207 | 6.4 | 12.9 | 0.00 | 0.03 | 0.03 | 68 | 1009.8 |
| 20260503013023 | 20 | 252 | 3.2 | 9.7 | 0.00 | 0.03 | 0.03 | 63 | 1009.8 |
| 20260503011521 | 20 | 253 | 1.6 | 4.8 | 0.00 | 0.03 | 0.03 | 64 | 1009.6 |
| 20260503010022 | 21 | 265 | 0.0 | 6.4 | 0.00 | 0.03 | 0.03 | 61 | 1009.6 |
| 20260503004521 | 21 | 227 | 0.0 | 4.8 | 0.00 | 0.03 | 0.03 | 60 | 1009.6 |
| 20260503003020 | 21 | 225 | 1.6 | 6.4 | 0.00 | 0.03 | 0.03 | 59 | 1009.6 |
| 20260503001518 | 21 | 214 | 1.6 | 9.7 | 0.00 | 0.03 | 0.03 | 58 | 1009.6 |
| 20260503000028 | 21 | 199 | 0.0 | 8.0 | 0.00 | 0.03 | 0.03 | 61 | 1009.6 |
| 20260502234514 | 21 | 202 | 1.6 | 6.4 | 0.00 | 0.03 | 0.03 | 60 | 1009.8 |
| 20260502233012 | 20 | 51 | 1.6 | 6.4 | 0.00 | 0.03 | 0.03 | 59 | 1010.0 |
| 20260502231508 | 20 | 19 | 3.2 | 8.0 | 0.00 | 0.03 | 0.03 | 61 | 1010.2 |
| 20260502230007 | 19 | 76 | 0.0 | 9.7 | 0.00 | 0.03 | 0.03 | 67 | 1010.3 |
| 20260502224502 | 18 | 83 | 4.8 | 14.5 | 0.00 | 0.03 | 0.03 | 66 | 1010.6 |
| 20260502223100 | 18 | 74 | 4.8 | 11.3 | 0.00 | 0.03 | 0.03 | 66 | 1010.8 |
| 20260502221558 | 18 | 19 | 1.6 | 14.5 | 0.00 | 0.03 | 0.03 | 67 | 1011.0 |
| 20260502220056 | 18 | 70 | 6.4 | 14.5 | 0.00 | 0.03 | 0.03 | 67 | 1011.2 |
| 20260502214556 | 17 | 88 | 4.8 | 14.5 | 0.00 | 0.03 | 0.03 | 68 | 1011.4 |
| 20260502213050 | 17 | 45 | 8.0 | 17.7 | 0.00 | 0.03 | 0.03 | 68 | 1011.5 |
| 20260502211550 | 16 | 63 | 4.8 | 14.5 | 0.00 | 0.03 | 0.03 | 71 | 1011.9 |
| 20260502210043 | 15 | 69 | 3.2 | 11.3 | 0.00 | 0.03 | 0.03 | 74 | 1011.9 |
| 20260502204540 | 15 | 55 | 1.6 | 16.1 | 0.00 | 0.03 | 0.03 | 76 | 1012.4 |
| 20260502203055 | 15 | 96 | 3.2 | 14.5 | 0.00 | 0.03 | 0.03 | 75 | 1012.5 |
| 20260502201537 | 15 | 96 | 3.2 | 12.9 | 0.00 | 0.03 | 0.03 | 73 | 1012.6 |